Regional Weather Roundup
Issued by NWS

Home | Current Version | Previous Version | Graphics & Text | Print | Product List | Glossary On
Versions: 1 2 3 4 5 6 7 8 9 10 11 12 13 14 15 16 17 18 19 20 21 22 23 24 25 26 27 28 29 30 31 32 33 34 35 36 37 38 39 40 41 42 43 44 45 46 47 48 49 50
000
ASUS44 KMEG 051200
RWRTN
TENNESSEE HOURLY STATE WEATHER ROUNDUP
NATIONAL WEATHER SERVICE MEMPHIS TN
700 AM CDT SAT SEP 05 2015

TNZ002-004-019-021-049-052-054-088>092-051300-
WEST TENNESSEE

CITY           SKY/WX    TMP DP  RH WIND       PRES   REMARKS
MEMPHIS INTL   PTCLDY    77  71  82 CALM      30.05R
NWS MEMPHIS      N/A     71 N/A N/A MISG        N/A
JACKSON        PTCLDY    68  65  90 CALM      30.07R FOG
DYERSBURG      CLEAR     72  70  94 E3        30.08R
UNION CITY       N/A    N/A N/A N/A CALM      30.06R VSB 1
PARIS          CLEAR     68  66  94 CALM      30.09R
LEXINGTON      CLEAR     66  66 100 CALM      30.07R
$$

TNZ008-025-027-028-033-062-065-066-051300-
NORTH MIDDLE TENNESSEE

CITY           SKY/WX    TMP DP  RH WIND       PRES   REMARKS
NASHVILLE      PTCLDY    73  67  81 CALM      30.10R HAZE
CLARKSVILLE    CLEAR     69  66  90 CALM      30.09R FOG
COOKEVILLE     CLEAR     64  64 100 CALM      30.11R
CROSSVILLE     CLEAR     66  63  90 CALM      30.17R FOG
$$

TNZ061-075-076-078-094-096-097-051300-
SOUTH MIDDLE TENNESSEE

CITY           SKY/WX    TMP DP  RH WIND       PRES   REMARKS
FAYETTEVILLE   CLEAR     70  68  94 CALM      30.10R
TULLAHOMA      CLEAR     66  63  88 CALM      30.12R
WINCHESTER     CLEAR     64  64 100 CALM      30.11R
MCMINNVILLE    CLEAR     66  66 100 CALM      30.11S
COLUMBIA       CLEAR    N/A N/A N/A CALM      30.08R
SHELBYVILLE    CLEAR     66  66 100 CALM      30.11R
$$

TNZ017-018-042-046-047-051300-
NORTHEAST TENNESSEE

CITY           SKY/WX    TMP DP  RH WIND       PRES   REMARKS
TRI CITIES     MOSUNNY   64  61  90 CALM      30.18R
ELIZABETHTON   SUNNY     64  61  88 E5        30.20R
$$

TNZ012-013-036-069-073-074-051300-
CENTRAL EAST TENNESSEE

CITY           SKY/WX    TMP DP  RH WIND       PRES   REMARKS
KNOXVILLE      CLEAR     69  67  93 CALM      30.12R
OAK RIDGE      CLEAR     70  66  87 CALM      30.14R FOG
GATLINBURG     SUNNY     64  63  94 E3        30.12S
$$

TNZ083-085-099-051300-
SOUTHEAST TENNESSEE

CITY           SKY/WX    TMP DP  RH WIND       PRES   REMARKS
CHATTANOOGA    CLEAR     71  67  87 CALM      30.11R FOG
$$

SKY/WX REPORTED AS FAIR MEANS FEW OR NO CLOUDS BELOW
12 THOUSAND FEET.




USA.gov is the U.S. government's official web portal to all federal, state and local government web resources and services.